Weather History for LTAG - September, 2012

Change the Weather History Date:

Tuesday, September 18, 2012

  Actual Average Record
Temperature  
Mean Temperature 80 °F -  
Max Temperature 92 °F 87 °F 96 °F (2006)
Min Temperature 68 °F 64 °F 35 °F (1996)
Cooling Degree Days 15    
Growing Degree Days 30 (Base 50)    
Moisture  
Dew Point 69 °F    
Average Humidity 71    
Maximum Humidity 100    
Minimum Humidity 34    
Precipitation  
Precipitation 0.00 in - - ()
Sea Level Pressure  
Sea Level Pressure 29.82 in    
Wind  
Wind Speed 5 mph ()    
Max Wind Speed 13 mph    
Max Gust Speed -    
Visibility 6.2 miles    
Events      
Averages and records for this station are not official NWS values.
T = Trace of Precipitation, MM = Missing Value Source: Averaged Metar Reports

Daily Weather History Graph

Daily Weather History Graph

Search for Another Location

Airport or City:

Trip Planner

Search our weather history database for the weather conditions in past years. The results will help you decide how hot, cold, wet, or windy it might be!

Date:

Astronomy

Sep. 18, 2012 Rise Set
Actual Time 6:23 AM EEST 6:41 PM EEST
Civil Twilight 5:57 AM EEST 7:07 PM EEST
Nautical Twilight 5:26 AM EEST 7:37 PM EEST
Astronomical Twilight 4:55 AM EEST 8:08 PM EEST
Moon 8:52 AM EEST (9/18) 7:55 PM EEST (9/18)
Length of Visible Light 13h 09m
Length of Day
12h 18m
Waxing Crescent, 7% of the Moon is Illuminated
Sep 18
Waxing Crescent
Sep 22
First Quarter
Sep 30
Full
Oct 8
Last Quarter
Oct 15
New

Hourly Weather History & Observations

Time (EEST) Temp. Heat Index Dew Point Humidity Pressure Visibility Wind Dir Wind Speed Gust Speed Precip Events Conditions
12:20 AM 73.4 °F - 68.0 °F 83% 29.86 in 6.2 mi East 2.3 mph - N/A   Partly Cloudy
12:50 AM 71.6 °F - 68.0 °F 88% 29.86 in 6.2 mi ENE 4.6 mph - N/A   Partly Cloudy
1:20 AM 71.6 °F - 68.0 °F 88% 29.86 in - ENE 3.5 mph - N/A   Clear
1:50 AM 71.6 °F - 68.0 °F 88% 29.83 in - NE 4.6 mph - N/A   Clear
2:20 AM 69.8 °F - 68.0 °F 94% 29.83 in - NE 6.9 mph - N/A   Clear
2:50 AM 69.8 °F - 68.0 °F 94% 29.83 in - NE 5.8 mph - N/A   Clear
3:00 AM 70 °F - 68 °F 90% 29.84 in 6 mi NE 5.8 mph - -  
3:20 AM 69.8 °F - 68.0 °F 94% 29.83 in - NE 5.8 mph - N/A   Clear
3:50 AM 69.8 °F - 68.0 °F 94% 29.83 in - North 6.9 mph - N/A   Clear
4:20 AM 69.8 °F - 68.0 °F 94% 29.83 in 6.2 mi North 6.9 mph - N/A   Partly Cloudy
4:50 AM 69.8 °F - 68.0 °F 94% 29.83 in 6.2 mi North 5.8 mph - N/A   Partly Cloudy
5:20 AM 69.8 °F - 68.0 °F 94% 29.83 in 6.2 mi North 5.8 mph - N/A   Partly Cloudy
5:50 AM 69.8 °F - 68.0 °F 94% 29.83 in 6.2 mi North 8.1 mph - N/A   Partly Cloudy
6:20 AM 68.0 °F - 68.0 °F 100% 29.83 in 6.2 mi NE 5.8 mph - N/A   Partly Cloudy
6:50 AM 69.8 °F - 68.0 °F 94% 29.83 in 6.2 mi North 5.8 mph - N/A   Partly Cloudy
7:20 AM 71.6 °F - 68.0 °F 88% 29.83 in 6.2 mi North 5.8 mph - N/A   Partly Cloudy
7:50 AM 75.2 °F - 69.8 °F 83% 29.83 in 6.2 mi NNE 3.5 mph - N/A   Partly Cloudy
8:20 AM 78.8 °F - 69.8 °F 74% 29.83 in 6.2 mi NE 2.3 mph - N/A   Partly Cloudy
8:50 AM 80.6 °F 83.9 °F 69.8 °F 70% 29.83 in 6.2 mi East 2.3 mph - N/A   Partly Cloudy
9:00 AM 81 °F - 70 °F 62% 29.83 in 6 mi East 2.3 mph - -   Scattered Clouds
9:20 AM 82.4 °F 86.3 °F 69.8 °F 66% 29.86 in 6.2 mi South 2.3 mph - N/A   Partly Cloudy
9:50 AM 82.4 °F 85.4 °F 68.0 °F 62% 29.83 in 6.2 mi Variable 2.3 mph - N/A   Partly Cloudy
10:20 AM 84.2 °F 86.6 °F 66.2 °F 55% 29.83 in 6.2 mi SSE 9.2 mph - N/A   Partly Cloudy
10:50 AM 86.0 °F 89.4 °F 68.0 °F 55% 29.83 in 6.2 mi SSE 8.1 mph - N/A   Partly Cloudy
11:20 AM 86.0 °F 88.2 °F 66.2 °F 51% 29.83 in 6.2 mi SSE 3.5 mph - N/A   Partly Cloudy
11:50 AM 87.8 °F 90.4 °F 66.2 °F 49% 29.83 in 6.2 mi SSE 8.1 mph - N/A   Scattered Clouds
12:20 PM 87.8 °F 90.4 °F 66.2 °F 49% 29.83 in 6.2 mi SSW 10.4 mph - N/A   Scattered Clouds
12:50 PM 87.8 °F 90.4 °F 66.2 °F 49% 29.83 in 6.2 mi South 10.4 mph - N/A   Scattered Clouds
1:20 PM 87.8 °F 90.4 °F 66.2 °F 49% 29.80 in 6.2 mi SSE 8.1 mph - N/A   Scattered Clouds
1:50 PM 89.6 °F 92.2 °F 66.2 °F 46% 29.80 in 6.2 mi South 2.3 mph - N/A   Scattered Clouds
2:20 PM 89.6 °F 93.4 °F 68.0 °F 49% 29.80 in 6.2 mi South 5.8 mph - N/A   Scattered Clouds
2:50 PM 91.4 °F 94.0 °F 66.2 °F 43% 29.80 in 6.2 mi SW 10.4 mph - N/A   Scattered Clouds
3:00 PM 92 °F - 67 °F 34% 29.79 in 6 mi SW 10.4 mph - -   Partly Cloudy
3:20 PM 91.4 °F 94.0 °F 66.2 °F 43% 29.77 in 6.2 mi SSE 9.2 mph - N/A   Scattered Clouds
3:50 PM 91.4 °F 95.4 °F 68.0 °F 46% 29.77 in 6.2 mi SSW 8.1 mph - N/A   Scattered Clouds
4:20 PM 89.6 °F 93.4 °F 68.0 °F 49% 29.77 in 6.2 mi SSE 6.9 mph - N/A   Scattered Clouds
4:50 PM 89.6 °F 94.7 °F 69.8 °F 52% 29.77 in 6.2 mi South 8.1 mph - N/A   Scattered Clouds
5:20 PM 87.8 °F 92.6 °F 69.8 °F 55% 29.77 in 6.2 mi South 8.1 mph - N/A   Scattered Clouds
5:50 PM 86.0 °F 90.4 °F 69.8 °F 58% 29.77 in 6.2 mi SSW 12.7 mph - N/A   Scattered Clouds
6:20 PM 84.2 °F 88.4 °F 69.8 °F 62% 29.80 in 6.2 mi SSW 8.1 mph - N/A   Scattered Clouds
6:50 PM 84.2 °F 88.4 °F 69.8 °F 62% 29.80 in 6.2 mi SSW 9.2 mph - N/A   Scattered Clouds
7:20 PM 82.4 °F 87.2 °F 71.6 °F 70% 29.80 in 6.2 mi South 8.1 mph - N/A   Scattered Clouds
7:50 PM 80.6 °F 84.6 °F 71.6 °F 74% 29.80 in 6.2 mi South 8.1 mph - N/A   Scattered Clouds
8:20 PM 80.6 °F 84.6 °F 71.6 °F 74% 29.83 in 6.2 mi South 5.8 mph - N/A   Scattered Clouds
8:50 PM 80.6 °F 84.6 °F 71.6 °F 74% 29.83 in 6.2 mi SSW 5.8 mph - N/A   Scattered Clouds
9:00 PM 80 °F - 72 °F 69% 29.81 in 6 mi SSW 5.8 mph - -   Partly Cloudy
9:20 PM 78.8 °F - 71.6 °F 78% 29.83 in 6.2 mi SSW 5.8 mph - N/A   Scattered Clouds
9:50 PM 78.8 °F - 71.6 °F 78% 29.83 in 6.2 mi South 4.6 mph - N/A   Scattered Clouds
10:20 PM 77.0 °F - 71.6 °F 83% 29.83 in 6.2 mi South 4.6 mph - N/A   Scattered Clouds
10:50 PM 77.0 °F - 71.6 °F 83% 29.83 in 6.2 mi South 4.6 mph - N/A   Scattered Clouds
11:20 PM 75.2 °F - 69.8 °F 83% 29.83 in 6.2 mi SSE 3.5 mph - N/A   Partly Cloudy
11:50 PM 75.2 °F - 69.8 °F 83% 29.83 in 6.2 mi SE 3.5 mph - N/A   Partly Cloudy